|
Cosmos 1536 Rocket - Orbit
|
Squamish;
15:30:15
| Home | Info | Passes |
|
View from above orbital plane
|
View from above satellite
|
Ground track
|
The orbit data is extracted from the following two-line orbital elements,
1 14700U 84013B 13140.46147191 .00000319 00000-0 36837-4 0 1334
2 14700 082.5372 107.0347 0020134 190.2327 317.8373 14.82333212580371
| Epoch (UTC): | 20 May 2013 11:04:31 |
| Eccentricity: | 0.0020134 |
| inclination: | 82.5372° |
| perigee height: | 608 km |
| apogee height: | 636 km |
| right ascension of ascending node: | 107.0347° |
| argument of perigee: | 190.2327° |
| revolutions per day: | 14.82333212 |
| mean anomaly at epoch: | 317.8373° |
| orbit number at epoch: | 58037 |
The dashed part of the orbit path shows where the satellite is in the earth's shadow,
|
|